Vorticity
4 -3 -2 1 2 5 6 5 5 6 3 2 0 -1 3 6 6 7 8 7 5 6 5 5 3 3 4 4 4 5 5 5 6 7 7 7 7 6 6 7 6 6 7 7 5 6 5 6 6 4 5 7 7 7 7 6 6 4 4 4 4 4 4 6 6 6 7 8 8 8 8 7 7 6 7 6 6 7 8 11 11 9 6 5 6
4 -3 -2 2 5 7 7 5 5 6 6 5 2 3 7 7 6 6 6 5 6 6 4 4 4 4 5 5 6 6 6 6 6 7 7 7 6 5 6 5 6 6 6 6 6 7 7 8 8 6 3 4 6 6 6 6 7 6 5 4 4 4 5 7 7 7 8 9 9 9 9 9 10 8 8 7 7 7 7 11 12 10 6 4 6
2 -2 -2 2 7 8 6 7 6 6 7 7 5 5 6 4 4 5 5 6 5 4 4 4 5 6 5 6 6 5 5 6 6 6 6 6 5 6 5 5 6 5 5 6 6 7 7 8 8 9 7 5 5 4 4 4 7 8 6 5 4 4 5 6 7 8 7 9 10 10 10 10 10 10 10 9 8 7 7 10 13 10 6 5 6
1 -3 1 6 9 9 7 7 6 7 8 6 5 5 4 4 5 6 6 4 3 4 5 5 6 6 5 6 5 5 5 5 6 5 5 5 5 5 5 6 6 5 5 5 6 7 5 5 6 7 7 6 6 6 5 3 4 8 7 5 5 5 5 6 6 7 7 7 9 9 9 8 8 9 11 10 8 7 7 8 12 11 6 5 5
0 -2 4 9 9 8 7 6 5 5 6 5 4 4 4 6 6 5 4 3 4 5 5 6 5 5 5 5 4 6 5 6 6 6 6 5 5 5 5 6 5 5 5 5 6 6 5 4 5 4 3 3 4 6 6 6 4 5 7 6 5 6 5 5 5 5 5 6 6 7 6 6 5 7 10 12 10 7 7 8 11 11 7 6 5
0 1 6 7 6 6 5 3 4 5 5 5 4 5 6 6 5 3 3 4 5 5 6 5 5 5 5 4 6 6 6 6 6 6 6 6 6 6 7 6 5 5 5 6 6 6 6 5 5 5 5 4 3 5 6 9 7 4 5 6 6 7 7 5 5 5 4 4 4 5 5 5 4 4 7 11 13 10 8 8 9 10 9 7 6
3 3 5 5 4 4 3 3 5 6 5 4 4 5 5 4 4 4 4 5 5 6 5 5 5 5 5 6 7 6 6 6 6 6 6 6 6 6 7 6 5 5 5 6 5 6 6 6 7 6 7 6 5 5 5 7 9 10 6 5 5 5 8 6 5 5 4 3 3 4 4 4 4 4 5 8 12 12 10 8 8 9 9 8 7
7 6 6 5 5 4 3 5 6 6 4 3 4 4 5 4 5 5 4 5 5 5 5 5 6 6 6 6 6 5 6 5 6 5 5 6 6 6 5 4 4 5 5 5 6 5 5 6 7 7 7 6 6 5 5 6 7 15 11 3 5 3 6 8 6 6 5 5 4 4 4 4 4 4 4 5 7 10 11 10 9 9 9 9 9
8 6 4 5 4 4 4 5 5 4 4 4 5 6 5 5 6 5 5 5 5 5 6 6 6 6 6 5 5 5 5 5 5 5 7 8 8 8 8 8 7 6 6 5 5 5 5 6 7 6 6 6 7 5 5 5 5 13 12 3 4 3 3 5 6 6 6 7 6 5 5 4 4 4 5 5 4 6 8 9 10 9 9 9 8
7 4 3 5 4 4 5 4 4 4 5 5 7 7 5 6 5 5 5 6 6 7 7 7 6 6 5 4 4 4 5 5 5 6 8 8 8 9 11 10 10 11 10 8 6 5 5 5 7 6 6 6 6 7 6 5 4 6 10 8 4 3 3 3 4 7 6 6 7 8 8 6 4 4 4 5 4 4 6 7 8 8 9 9 8
4 4 4 5 5 4 5 4 4 5 6 7 7 6 6 6 6 6 6 6 7 7 7 6 6 5 5 5 5 5 5 5 6 7 7 6 6 8 9 9 10 11 12 11 9 8 7 5 7 6 6 7 7 7 7 7 6 5 6 10 10 6 4 3 2 4 6 6 6 7 8 9 7 6 3 3 4 5 5 5 7 7 7 7 8
3 4 4 4 5 4 4 5 6 7 7 8 8 7 6 6 7 7 6 7 7 6 6 6 6 7 7 7 6 6 6 7 7 6 6 5 5 8 9 10 11 11 12 12 10 10 10 7 5 6 7 9 9 8 8 8 7 7 5 7 11 11 7 5 4 4 5 6 7 7 8 9 9 8 6 4 4 4 4 4 5 6 6 6 7
4 3 4 5 5 4 5 6 7 7 8 9 8 7 6 6 6 6 7 6 6 6 6 7 7 8 8 8 8 8 8 8 7 7 7 7 9 11 12 12 12 12 13 12 12 13 14 11 6 7 8 8 9 9 10 9 7 7 6 5 8 12 10 4 5 5 4 6 7 8 8 8 9 10 10 9 7 4 4 3 3 4 4 5 5
4 4 5 5 5 5 7 6 7 8 8 8 7 6 6 6 6 6 6 6 6 7 8 8 7 8 9 9 8 9 9 9 9 10 11 12 13 13 12 11 12 13 12 12 13 14 14 12 10 9 8 7 7 8 9 9 10 8 7 7 5 11 13 6 3 4 3 3 5 7 9 9 9 10 9 11 11 9 7 5 4 4 4 4 5
4 7 7 6 7 8 6 5 7 8 8 7 6 5 5 5 6 6 7 7 8 8 8 8 9 9 9 8 9 10 11 11 12 13 13 13 13 12 11 10 10 11 12 12 12 12 12 11 10 9 8 9 8 8 8 8 9 10 9 8 6 7 11 10 6 4 2 -0 1 2 4 7 9 10 8 7 8 9 10 9 7 7 6 5 5
5 7 9 9 10 8 5 5 8 8 7 7 5 4 4 5 7 7 7 8 8 9 9 10 9 9 9 10 12 13 12 11 11 12 12 12 13 12 11 10 10 11 11 11 10 9 10 10 10 11 12 12 12 12 13 13 12 12 11 8 7 6 7 9 8 7 4 1 1 -1 -1 0 3 6 7 7 7 6 7 8 9 9 9 8 6
5 7 11 13 10 8 6 6 8 8 7 6 4 4 5 7 9 9 8 8 9 10 9 8 8 9 12 13 12 10 9 9 10 10 10 11 12 11 11 12 13 12 11 9 9 9 10 12 13 14 14 12 12 12 13 16 18 18 15 13 9 6 6 6 8 9 8 5 3 0 -1 -1 -1 1 3 5 7 7 7 7 7 8 9 10 9
6 8 12 13 9 8 8 7 7 7 6 4 4 5 7 9 9 8 8 8 7 8 8 7 9 12 13 11 8 7 7 8 7 7 8 9 9 9 10 11 11 10 9 9 8 9 10 10 11 11 10 9 8 8 9 12 17 19 18 18 15 12 9 6 6 8 9 9 6 3 2 2 2 1 1 1 3 6 6 7 7 7 8 9 10
6 11 12 10 9 9 8 8 7 7 6 5 6 8 9 10 9 7 7 6 7 7 8 10 12 12 10 7 7 7 7 7 7 7 8 8 8 7 8 7 7 7 6 7 7 8 7 6 7 8 9 9 8 8 9 11 13 14 15 16 17 17 15 12 9 8 10 10 10 9 6 5 6 6 4 2 2 3 4 5 6 8 7 7 7
6 13 10 9 10 9 9 8 8 7 6 6 8 9 9 9 7 6 6 7 8 9 10 11 11 9 7 7 7 7 8 7 6 7 6 6 6 5 5 5 5 5 5 4 4 5 4 5 5 6 6 6 6 6 7 10 11 11 11 12 13 14 15 14 13 11 10 9 10 10 9 8 10 11 9 5 4 4 4 4 4 5 7 7 7
8 14 10 9 10 9 10 9 8 7 7 8 8 9 10 8 6 6 7 8 9 10 11 10 8 8 8 8 8 8 7 6 5 4 4 3 3 3 3 3 3 3 3 2 2 3 2 2 2 3 3 2 3 3 3 5 7 8 9 10 12 13 13 13 12 12 11 9 9 8 8 8 10 11 9 7 5 5 5 4 4 4 5 6 7
9 14 9 8 9 9 11 9 8 7 7 8 8 9 9 7 6 6 8 8 10 10 10 8 7 8 8 8 8 7 6 4 3 2 3 3 3 3 3 3 4 3 3 3 3 3 3 3 3 3 3 3 2 2 2 2 3 4 5 6 8 10 11 13 13 13 13 13 12 11 11 9 9 9 8 8 6 6 6 5 5 4 4 4 5
11 14 9 8 8 9 10 9 8 7 7 8 8 9 8 7 6 7 8 8 10 9 8 7 7 8 8 7 6 5 4 3 2 2 2 3 3 3 3 4 4 5 5 5 5 4 4 4 4 4 4 4 4 3 3 4 4 3 3 3 3 4 5 7 9 10 12 13 14 14 14 14 13 11 10 9 9 9 8 8 7 6 5 4 4
14 13 8 8 8 9 10 9 8 7 7 7 8 9 8 8 7 7 7 9 9 7 7 7 7 7 6 5 4 3 3 3 2 3 3 3 4 3 3 4 4 5 5 6 6 6 6 6 5 5 5 5 5 5 4 5 5 5 5 5 4 4 3 4 4 5 5 6 8 9 11 13 14 14 14 13 12 12 12 12 10 9 8 6 5
16 12 8 9 8 9 10 9 8 6 7 7 9 9 8 8 6 7 8 9 8 6 6 7 7 6 4 4 3 3 3 3 3 3 4 3 4 5 4 4 4 5 5 6 6 6 7 7 7 6 6 7 7 6 6 6 6 6 6 6 6 6 5 5 5 4 5 4 4 5 5 7 9 12 14 15 14 13 13 13 12 11 11 9 8
16 10 8 10 9 9 9 8 7 6 6 8 9 8 8 7 5 7 9 9 6 6 6 6 6 4 4 3 3 3 3 4 4 4 4 4 4 5 5 4 4 4 4 5 5 5 6 7 7 7 6 7 7 7 7 7 6 6 5 6 7 7 7 6 6 6 6 6 5 5 4 4 5 6 8 10 11 11 12 12 13 14 13 13 11
15 9 8 10 9 9 8 6 5 5 6 8 8 8 8 7 5 7 8 8 6 6 6 5 5 4 3 3 3 4 4 4 5 4 4 4 4 3 4 4 4 4 3 4 5 5 5 6 6 7 8 6 6 8 8 8 8 7 6 6 6 7 7 7 7 7 7 7 6 6 6 5 5 5 5 6 6 7 7 10 12 14 15 15 15
14 8 10 9 9 9 6 5 4 4 6 7 7 7 7 7 6 7 8 8 8 7 6 5 4 4 3 3 3 4 4 5 4 5 4 3 3 3 3 4 4 4 5 5 5 6 6 5 5 6 7 7 6 6 6 7 8 9 7 6 6 7 7 6 7 7 7 7 7 7 7 7 6 6 6 6 6 6 5 8 10 11 12 14 18
12 8 9 8 9 9 7 5 4 4 5 6 7 7 7 7 6 7 8 8 7 6 5 5 4 4 4 4 4 5 5 5 5 5 4 3 3 3 3 3 4 4 6 6 5 6 6 6 6 5 5 7 6 5 5 5 7 9 9 8 7 7 8 7 7 8 7 7 7 7 7 8 7 6 7 7 7 7 7 8 8 7 7 9 12
10 9 9 7 8 9 8 6 4 5 6 6 6 7 7 7 7 7 8 7 6 5 5 4 4 4 4 5 5 6 6 5 5 5 4 3 3 4 4 3 4 4 5 5 5 5 6 7 7 6 5 5 6 5 4 4 6 7 7 8 8 8 8 8 8 8 8 8 7 7 8 8 7 7 8 9 9 8 8 7 7 7 7 8 7
9 10 7 6 7 7 7 6 6 6 7 8 7 7 8 8 8 8 8 7 5 5 5 4 5 5 4 5 6 6 6 5 5 5 4 4 4 5 5 4 4 5 4 3 3 3 4 5 6 7 6 5 6 6 4 4 5 5 5 6 7 8 8 8 8 9 8 8 7 7 7 7 7 7 7 8 9 9 9 8 7 7 8 8 7
8 9 6 4 5 5 6 6 6 7 8 10 9 8 8 8 7 7 7 6 6 5 5 4 4 5 4 5 6 5 5 5 5 5 5 5 6 6 5 6 6 5 5 3 2 2 3 4 4 6 6 6 5 5 5 4 4 5 5 5 5 7 7 8 9 9 9 8 8 7 6 6 7 8 7 7 7 8 10 9 8 7 8 7 6
8 8 6 3 4 5 6 7 7 6 7 9 9 8 7 7 6 5 6 5 5 5 4 4 4 4 4 5 6 6 6 6 6 6 6 6 5 5 5 5 5 5 5 5 5 3 3 3 4 5 6 6 5 6 6 4 5 4 3 5 4 5 6 7 9 9 9 9 8 7 6 6 7 7 7 7 7 7 8 9 8 6 7 7 7
7 9 6 3 4 4 6 7 7 6 6 7 8 8 7 6 5 4 5 5 4 4 4 4 4 4 4 6 7 6 6 6 7 7 6 6 5 4 4 4 4 4 4 5 6 6 6 5 5 4 5 6 6 6 6 5 5 5 3 4 4 4 4 5 7 8 9 10 9 8 8 7 7 7 7 8 8 7 6 8 7 5 6 7 8
6 9 6 5 4 3 6 7 7 7 5 6 7 8 7 6 5 4 4 4 3 3 4 4 3 4 3 5 7 7 6 6 6 5 5 5 5 3 3 3 3 2 2 3 3 4 6 7 7 6 5 6 6 6 6 5 5 5 4 4 5 4 4 4 4 5 7 9 9 9 8 8 7 7 7 8 8 7 7 6 6 5 5 6 7
6 8 5 5 5 3 7 7 7 8 7 6 6 6 7 6 6 5 5 5 4 4 4 4 4 4 4 5 8 7 6 5 5 4 5 4 3 2 2 1 1 1 2 3 3 4 5 7 9 9 7 6 6 7 6 5 6 6 5 5 5 4 4 5 4 3 4 6 7 8 7 6 7 7 8 9 8 8 7 6 6 5 4 4 5
7 8 6 5 5 5 7 7 6 7 7 7 7 6 5 5 5 5 6 5 5 6 5 5 5 5 5 7 7 7 5 5 5 4 4 3 2 1 1 1 1 2 3 3 5 6 6 7 9 10 8 7 6 7 7 6 5 5 5 5 4 4 5 6 5 3 3 3 4 5 6 5 5 6 7 8 9 9 8 8 7 6 5 4 3
8 8 6 7 7 6 7 6 5 6 8 8 7 7 6 5 5 5 6 6 5 5 5 6 6 7 8 8 7 6 5 4 4 3 2 2 1 1 1 2 3 4 5 6 7 8 9 10 10 9 8 7 6 6 7 6 5 5 5 4 4 3 5 6 5 4 4 4 4 4 4 4 4 4 5 5 6 8 9 9 8 7 6 5 4
7 5 5 9 9 8 10 9 6 6 8 9 8 7 7 6 6 6 6 6 5 5 5 7 9 9 9 9 8 6 5 5 3 3 2 1 1 2 2 4 5 6 7 8 9 10 11 11 10 9 9 8 8 8 8 7 6 6 5 5 3 3 5 6 5 4 5 4 4 4 3 3 3 4 4 4 4 5 7 8 9 9 7 6 5
6 4 6 10 11 11 14 11 8 9 8 8 8 6 7 7 7 8 7 6 6 6 6 8 9 9 9 8 7 6 5 4 3 3 2 2 2 3 4 6 8 9 10 10 11 13 14 12 10 9 9 9 10 11 10 9 8 8 8 7 5 4 6 6 5 5 5 4 4 5 4 3 3 3 4 4 4 4 4 5 7 9 10 9 6
5 6 6 9 13 11 10 10 9 9 8 7 7 7 8 9 8 8 8 7 6 7 8 9 9 7 7 7 5 4 3 3 3 3 3 3 4 5 7 10 11 11 10 10 13 15 16 15 13 12 11 11 11 11 11 10 9 9 8 9 8 7 7 7 7 6 6 5 5 5 5 5 4 4 4 4 5 4 4 4 5 6 8 9 9
4 7 5 7 12 9 7 8 8 7 8 8 7 7 7 8 8 8 8 7 6 8 9 9 7 5 5 5 4 3 2 2 2 2 3 4 6 8 10 12 12 10 9 10 12 14 15 16 15 14 12 12 11 11 11 10 10 10 9 9 9 8 8 8 8 7 7 7 6 6 6 6 6 5 5 4 5 5 5 5 5 5 5 7 9
4 6 6 6 8 8 7 6 6 6 6 7 7 8 7 6 7 7 8 9 8 8 8 7 5 4 4 3 3 2 2 2 2 2 3 4 8 10 11 11 9 8 7 9 9 9 10 10 10 10 9 9 9 9 9 9 9 9 9 10 10 10 9 8 8 8 8 8 8 8 8 7 7 6 5 4 4 6 6 5 5 5 5 5 6
5 4 4 5 4 3 4 3 3 5 5 5 7 8 8 7 7 7 7 8 10 9 7 6 5 3 4 4 3 3 2 2 2 2 3 6 9 9 8 9 7 6 6 7 6 5 5 4 5 5 4 5 5 6 6 6 6 7 7 8 8 9 9 9 8 9 9 9 9 9 8 8 7 6 5 5 6 6 7 6 5 4 5 5 4
7 6 5 6 4 2 3 3 2 3 3 4 6 7 7 7 7 7 7 7 10 10 7 5 4 3 3 4 4 3 2 2 3 2 3 7 9 7 7 8 6 5 6 6 5 3 2 3 4 4 4 5 5 6 6 5 5 5 5 5 6 6 6 7 7 8 8 8 9 7 6 5 5 5 5 7 8 7 7 7 6 5 5 6 6
8 8 8 8 8 6 4 4 4 4 3 3 5 5 5 7 7 7 7 8 8 9 10 6 3 3 3 3 4 3 3 3 2 2 4 7 8 7 6 6 5 6 7 7 6 5 4 4 4 4 6 6 6 6 5 6 8 8 8 7 7 8 7 7 6 6 6 6 6 6 6 6 6 6 5 7 8 7 7 7 8 8 8 7 7
12 10 10 9 9 9 6 4 5 7 5 4 5 5 4 5 6 6 6 7 7 9 11 8 5 5 4 3 3 3 3 3 2 2 4 7 8 6 6 6 5 6 7 7 7 6 6 5 5 6 6 5 5 5 5 7 11 14 15 13 11 10 10 11 10 9 8 8 7 7 8 8 9 9 8 8 8 7 8 9 11 12 12 11 11
12 12 11 9 9 10 9 6 5 6 7 7 6 5 5 6 5 6 6 5 6 7 9 9 9 7 5 4 4 3 2 2 3 3 3 6 8 7 6 6 6 6 7 8 7 6 5 6 6 5 4 4 5 5 5 7 9 13 16 17 16 13 12 13 13 12 11 10 8 8 7 8 10 11 12 13 13 12 12 13 14 15 14 12 11
8 8 9 9 9 10 9 8 6 5 7 9 9 6 5 6 7 8 6 4 5 6 5 7 8 7 6 5 4 3 3 3 3 3 3 7 9 8 6 6 5 6 8 9 7 5 5 6 5 4 4 6 7 7 7 7 8 10 12 14 15 13 12 11 10 10 9 8 7 6 4 6 11 13 14 14 14 15 14 12 12 12 12 11 8
5 5 7 7 7 8 6 7 7 6 6 7 9 10 8 8 8 8 7 6 6 6 5 5 6 7 6 5 4 4 3 3 4 3 4 8 10 8 7 6 5 7 10 8 5 5 5 4 4 5 6 7 8 8 9 8 8 10 9 9 10 9 9 8 8 9 9 9 9 7 5 6 10 13 13 10 8 11 11 9 8 8 9 12 13
7 6 8 8 8 7 6 8 9 9 8 6 7 9 11 11 9 6 6 9 10 8 6 6 6 6 5 4 4 4 4 4 4 4 6 9 10 9 7 5 6 9 9 5 5 5 4 4 4 6 7 8 8 8 8 8 7 7 7 7 8 7 7 7 8 8 10 12 12 10 7 6 9 12 12 9 5 5 6 7 6 6 7 9 12
Height
5893 5893 5893 5893 5893 5893 5893 5893 5893 5893 5895 5896 5898 5898 5895 5894 5894 5894 5894 5894 5895 5895 5896 5897 5898 5898 5898 5899 5899 5900 5900 5901 5902 5902 5902 5902 5902 5902 5903 5903 5903 5902 5902 5901 5901 5902 5903 5903 5903 5903 5904 5905 5906 5906 5905 5905 5904 5904 5904 5904 5904 5904 5904 5904 5903 5903 5904 5904 5904 5904 5905 5904 5904 5904 5904 5904 5905 5905 5906 5906 5907 5908 5909 5911 5912
5893 5894 5894 5894 5894 5894 5894 5894 5895 5895 5896 5897 5898 5897 5895 5895 5895 5895 5895 5895 5896 5897 5897 5898 5899 5899 5899 5900 5900 5901 5902 5902 5903 5903 5903 5903 5903 5903 5903 5903 5903 5902 5901 5901 5902 5904 5904 5903 5903 5904 5905 5906 5907 5907 5906 5906 5905 5905 5904 5904 5904 5904 5904 5904 5904 5904 5904 5904 5905 5905 5905 5905 5905 5905 5905 5905 5906 5906 5907 5907 5908 5909 5910 5911 5912
5894 5895 5895 5895 5895 5895 5895 5895 5896 5896 5897 5897 5897 5896 5896 5896 5896 5896 5896 5896 5897 5898 5899 5899 5900 5900 5901 5901 5902 5902 5903 5903 5903 5904 5903 5903 5903 5903 5903 5903 5902 5902 5901 5902 5904 5905 5904 5903 5903 5905 5906 5907 5907 5907 5907 5906 5905 5905 5905 5905 5905 5905 5905 5905 5905 5904 5904 5905 5905 5905 5906 5906 5906 5906 5906 5906 5906 5907 5908 5908 5909 5910 5911 5912 5913
5895 5895 5896 5896 5895 5895 5896 5896 5896 5897 5897 5897 5897 5897 5897 5897 5897 5897 5897 5898 5898 5899 5900 5900 5901 5901 5902 5902 5903 5903 5904 5904 5904 5904 5904 5903 5903 5903 5903 5903 5903 5902 5901 5902 5904 5905 5904 5903 5904 5906 5907 5907 5906 5906 5906 5906 5906 5906 5905 5905 5905 5905 5905 5905 5905 5905 5905 5905 5905 5906 5906 5906 5906 5906 5907 5907 5907 5908 5908 5909 5910 5910 5911 5912 5913
5896 5896 5896 5896 5896 5896 5896 5897 5897 5897 5897 5897 5897 5898 5898 5898 5898 5898 5898 5899 5899 5900 5901 5901 5902 5902 5903 5904 5904 5904 5904 5904 5904 5904 5904 5904 5904 5904 5904 5903 5903 5903 5902 5903 5904 5905 5904 5903 5905 5907 5907 5906 5906 5906 5906 5906 5907 5906 5906 5906 5905 5906 5906 5906 5906 5906 5905 5906 5906 5906 5907 5907 5907 5907 5908 5908 5908 5909 5909 5910 5911 5911 5912 5913 5914
5896 5896 5896 5896 5896 5897 5897 5897 5897 5897 5897 5897 5898 5898 5898 5898 5898 5899 5899 5900 5900 5901 5901 5902 5903 5903 5904 5904 5905 5905 5904 5904 5904 5904 5904 5904 5904 5904 5904 5904 5904 5903 5903 5904 5905 5905 5904 5904 5906 5907 5907 5906 5906 5906 5907 5907 5907 5907 5907 5907 5907 5906 5907 5907 5907 5907 5907 5907 5907 5907 5907 5907 5908 5908 5909 5909 5910 5910 5910 5911 5912 5912 5913 5914 5915
5897 5897 5897 5897 5897 5897 5898 5898 5898 5898 5898 5898 5899 5899 5899 5899 5899 5900 5900 5901 5901 5902 5902 5903 5904 5904 5905 5905 5905 5904 5904 5904 5904 5905 5905 5905 5905 5905 5905 5905 5904 5904 5904 5905 5905 5906 5905 5905 5907 5907 5906 5906 5906 5907 5907 5907 5907 5907 5907 5907 5907 5907 5908 5908 5908 5908 5908 5908 5908 5908 5909 5908 5909 5909 5910 5910 5911 5911 5912 5912 5913 5914 5914 5915 5916
5897 5897 5897 5898 5898 5898 5898 5899 5899 5899 5899 5899 5899 5899 5900 5900 5900 5901 5901 5902 5902 5903 5903 5904 5905 5905 5905 5905 5905 5904 5904 5905 5905 5905 5905 5905 5905 5905 5905 5905 5905 5905 5906 5906 5906 5906 5906 5906 5907 5907 5907 5907 5907 5907 5907 5907 5907 5907 5908 5908 5908 5908 5908 5909 5909 5909 5909 5909 5909 5909 5909 5910 5910 5911 5911 5912 5912 5913 5913 5914 5914 5915 5916 5916 5917
5898 5898 5898 5898 5899 5899 5899 5900 5900 5900 5900 5900 5900 5900 5901 5901 5901 5902 5902 5903 5903 5904 5904 5905 5906 5906 5905 5905 5905 5905 5905 5905 5905 5906 5906 5906 5906 5906 5906 5906 5906 5906 5906 5906 5906 5906 5906 5906 5907 5907 5907 5907 5907 5907 5907 5907 5907 5907 5908 5908 5908 5908 5909 5909 5909 5909 5909 5910 5910 5910 5910 5911 5911 5912 5912 5913 5914 5914 5915 5915 5916 5916 5916 5917 5917
5899 5899 5899 5899 5899 5899 5900 5900 5901 5901 5901 5900 5901 5901 5902 5902 5902 5903 5903 5904 5904 5905 5905 5906 5906 5906 5906 5905 5905 5905 5905 5906 5906 5906 5906 5906 5906 5906 5906 5906 5906 5906 5906 5906 5906 5906 5906 5907 5908 5908 5908 5908 5908 5908 5908 5908 5908 5908 5908 5909 5909 5909 5910 5910 5910 5910 5910 5910 5911 5911 5911 5911 5912 5913 5913 5914 5915 5916 5916 5916 5917 5917 5917 5918 5918
5899 5900 5900 5900 5900 5900 5901 5901 5901 5901 5901 5901 5902 5902 5902 5903 5903 5904 5904 5905 5905 5906 5906 5907 5907 5906 5906 5906 5906 5906 5906 5907 5907 5907 5907 5907 5907 5907 5907 5907 5907 5906 5906 5906 5906 5906 5907 5908 5908 5908 5909 5909 5909 5909 5909 5909 5909 5909 5909 5909 5910 5910 5911 5911 5911 5911 5911 5911 5911 5912 5912 5912 5913 5913 5914 5915 5916 5916 5917 5917 5917 5918 5918 5919 5919
5900 5900 5900 5901 5901 5901 5901 5902 5902 5902 5902 5902 5902 5903 5903 5904 5904 5905 5905 5905 5906 5907 5907 5907 5907 5907 5907 5907 5907 5907 5907 5907 5907 5907 5907 5907 5908 5908 5908 5908 5907 5907 5906 5906 5906 5907 5907 5908 5909 5909 5909 5910 5910 5910 5910 5910 5910 5910 5910 5910 5910 5910 5911 5911 5911 5911 5911 5911 5912 5912 5913 5913 5914 5914 5915 5915 5916 5917 5917 5918 5918 5918 5918 5919 5919
5900 5901 5901 5901 5901 5902 5902 5902 5903 5902 5902 5902 5903 5903 5904 5905 5905 5905 5906 5906 5907 5907 5908 5908 5908 5908 5908 5908 5908 5908 5908 5908 5908 5908 5908 5908 5908 5908 5908 5908 5908 5907 5907 5907 5907 5907 5908 5908 5909 5910 5910 5910 5910 5910 5910 5910 5910 5910 5910 5910 5910 5910 5911 5911 5911 5912 5912 5912 5912 5913 5914 5914 5915 5915 5915 5916 5916 5917 5917 5918 5918 5918 5919 5919 5920
5901 5902 5902 5902 5902 5902 5903 5903 5903 5903 5903 5903 5903 5904 5904 5905 5906 5906 5906 5907 5908 5908 5908 5908 5908 5909 5909 5909 5909 5909 5909 5909 5909 5909 5909 5909 5909 5909 5909 5909 5908 5908 5907 5907 5908 5908 5908 5909 5909 5910 5910 5910 5910 5910 5910 5910 5910 5910 5910 5910 5910 5910 5911 5911 5912 5912 5913 5913 5913 5914 5914 5915 5916 5916 5916 5916 5916 5917 5917 5918 5918 5919 5919 5919 5920
5902 5902 5902 5902 5902 5903 5903 5903 5903 5903 5903 5903 5903 5904 5905 5905 5906 5907 5907 5908 5908 5909 5909 5909 5910 5910 5910 5910 5910 5910 5910 5910 5910 5910 5910 5910 5910 5910 5910 5910 5909 5908 5908 5908 5908 5909 5909 5910 5910 5910 5910 5910 5910 5910 5910 5910 5910 5910 5910 5910 5910 5910 5911 5911 5912 5912 5913 5913 5914 5915 5915 5916 5916 5916 5917 5917 5917 5917 5917 5917 5918 5918 5919 5919 5920
5903 5903 5903 5903 5903 5903 5903 5903 5903 5904 5904 5904 5904 5905 5905 5906 5907 5907 5908 5909 5909 5910 5910 5910 5911 5911 5911 5911 5911 5911 5911 5912 5912 5912 5912 5912 5912 5911 5911 5911 5910 5910 5910 5909 5909 5910 5910 5910 5911 5911 5911 5911 5911 5910 5910 5910 5910 5909 5909 5910 5910 5910 5911 5911 5911 5912 5912 5913 5914 5915 5915 5916 5917 5917 5917 5917 5917 5917 5917 5917 5918 5918 5919 5919 5919
5903 5903 5903 5903 5903 5903 5903 5903 5904 5904 5904 5904 5905 5905 5906 5907 5907 5908 5909 5910 5910 5911 5911 5912 5912 5912 5912 5913 5913 5913 5913 5913 5913 5913 5913 5913 5913 5913 5912 5912 5912 5911 5911 5911 5911 5911 5911 5912 5912 5912 5912 5912 5912 5911 5911 5910 5910 5909 5910 5910 5910 5910 5911 5911 5911 5912 5912 5913 5914 5915 5915 5916 5917 5917 5917 5917 5917 5917 5917 5918 5918 5918 5918 5919 5919
5903 5903 5903 5903 5903 5903 5904 5904 5904 5904 5905 5905 5905 5906 5907 5907 5908 5909 5910 5911 5911 5912 5912 5913 5913 5913 5914 5914 5914 5914 5914 5915 5915 5914 5914 5914 5914 5914 5914 5914 5913 5913 5913 5912 5912 5913 5913 5913 5913 5913 5913 5913 5913 5912 5911 5911 5910 5910 5910 5910 5910 5910 5911 5911 5912 5912 5913 5913 5914 5914 5915 5916 5916 5916 5917 5917 5917 5917 5917 5918 5918 5918 5918 5919 5919
5903 5904 5904 5904 5904 5904 5904 5904 5904 5904 5905 5905 5906 5907 5907 5908 5909 5910 5911 5911 5912 5913 5913 5914 5914 5915 5915 5915 5915 5916 5916 5916 5916 5916 5916 5916 5916 5916 5915 5915 5915 5915 5914 5914 5914 5914 5914 5914 5914 5914 5914 5914 5914 5913 5912 5912 5911 5911 5911 5911 5911 5911 5911 5912 5912 5913 5913 5913 5914 5914 5915 5915 5916 5916 5916 5916 5917 5917 5917 5917 5918 5918 5918 5918 5919
5903 5903 5904 5904 5904 5904 5904 5905 5905 5905 5905 5906 5907 5907 5908 5908 5909 5910 5911 5912 5913 5914 5914 5915 5915 5916 5916 5917 5917 5917 5917 5917 5917 5917 5917 5917 5917 5917 5917 5917 5917 5916 5916 5916 5916 5916 5916 5916 5916 5916 5916 5916 5915 5915 5914 5913 5913 5913 5913 5913 5912 5912 5913 5913 5913 5913 5913 5914 5914 5914 5915 5915 5916 5916 5916 5916 5917 5917 5917 5917 5917 5917 5918 5918 5919
5903 5903 5904 5904 5904 5905 5905 5905 5905 5905 5906 5907 5907 5908 5909 5909 5910 5911 5912 5913 5914 5915 5915 5916 5916 5917 5917 5918 5918 5918 5918 5918 5918 5919 5919 5919 5918 5918 5918 5918 5918 5918 5918 5918 5918 5918 5918 5918 5918 5918 5917 5917 5917 5916 5916 5915 5915 5915 5915 5914 5914 5914 5914 5914 5914 5914 5914 5914 5914 5915 5915 5915 5916 5916 5916 5916 5916 5916 5917 5917 5917 5917 5917 5918 5918
5903 5904 5904 5904 5905 5905 5905 5906 5906 5906 5907 5907 5908 5908 5909 5910 5911 5912 5913 5914 5915 5916 5916 5917 5917 5918 5919 5919 5920 5920 5920 5920 5920 5920 5920 5920 5919 5919 5919 5919 5919 5920 5920 5919 5920 5919 5919 5919 5919 5919 5919 5918 5918 5918 5917 5917 5917 5917 5917 5916 5916 5916 5916 5916 5915 5915 5915 5915 5915 5915 5915 5915 5915 5915 5916 5916 5916 5916 5916 5916 5916 5916 5917 5917 5917
5904 5904 5904 5904 5905 5905 5906 5906 5907 5907 5907 5908 5908 5909 5910 5911 5912 5913 5914 5915 5916 5917 5917 5918 5919 5919 5920 5920 5921 5921 5921 5921 5921 5921 5921 5921 5920 5920 5920 5920 5920 5921 5921 5921 5921 5921 5921 5921 5920 5920 5920 5919 5919 5919 5919 5919 5918 5918 5918 5918 5918 5917 5917 5917 5917 5916 5916 5916 5916 5916 5915 5915 5915 5915 5915 5915 5915 5915 5915 5915 5916 5916 5916 5916 5917
5904 5904 5904 5905 5905 5905 5906 5907 5907 5908 5908 5908 5909 5910 5911 5912 5913 5914 5915 5916 5917 5918 5918 5919 5920 5920 5921 5921 5922 5922 5922 5922 5922 5922 5921 5922 5921 5921 5921 5921 5921 5922 5922 5922 5922 5923 5922 5922 5922 5921 5921 5921 5920 5920 5920 5920 5920 5920 5919 5919 5919 5919 5918 5918 5918 5918 5917 5917 5917 5917 5916 5916 5915 5915 5915 5915 5915 5915 5915 5915 5915 5915 5915 5915 5915
5903 5904 5904 5905 5905 5906 5907 5907 5908 5908 5909 5909 5910 5911 5912 5913 5914 5915 5916 5917 5918 5918 5919 5920 5921 5921 5922 5922 5923 5923 5923 5923 5923 5923 5922 5922 5922 5922 5922 5923 5923 5923 5923 5923 5923 5923 5923 5923 5923 5923 5922 5922 5922 5922 5921 5921 5921 5920 5920 5920 5920 5920 5919 5919 5919 5919 5919 5918 5918 5918 5917 5916 5916 5916 5915 5915 5915 5915 5914 5914 5914 5914 5914 5914 5915
5903 5904 5905 5905 5906 5906 5907 5908 5909 5909 5909 5910 5911 5912 5913 5914 5915 5916 5917 5917 5918 5919 5920 5921 5922 5922 5923 5923 5924 5924 5924 5925 5924 5924 5923 5923 5923 5923 5924 5924 5924 5924 5924 5924 5924 5924 5924 5924 5924 5924 5924 5923 5923 5923 5922 5922 5922 5921 5921 5921 5921 5920 5920 5920 5920 5919 5919 5919 5919 5918 5918 5917 5917 5916 5916 5916 5915 5915 5915 5914 5914 5914 5914 5914 5914
5903 5904 5905 5905 5906 5907 5907 5908 5909 5910 5910 5911 5912 5913 5914 5915 5916 5916 5917 5918 5919 5920 5921 5922 5922 5923 5924 5924 5924 5925 5925 5925 5925 5925 5924 5924 5924 5924 5924 5925 5925 5925 5925 5925 5925 5925 5925 5924 5924 5924 5924 5924 5924 5923 5923 5923 5923 5922 5921 5921 5921 5921 5920 5920 5920 5920 5920 5920 5919 5919 5918 5918 5917 5917 5917 5916 5916 5915 5915 5915 5914 5914 5914 5914 5914
5903 5904 5905 5905 5906 5907 5908 5909 5910 5910 5911 5912 5913 5913 5914 5915 5916 5917 5918 5919 5919 5920 5921 5922 5923 5924 5924 5925 5925 5926 5926 5926 5926 5926 5925 5925 5925 5925 5925 5925 5926 5926 5926 5926 5925 5925 5925 5925 5925 5925 5925 5925 5924 5924 5924 5923 5923 5923 5922 5922 5922 5922 5921 5921 5920 5920 5920 5920 5920 5919 5919 5918 5918 5917 5917 5917 5916 5916 5915 5915 5915 5914 5914 5914 5914
5903 5904 5905 5906 5906 5907 5908 5909 5910 5911 5912 5913 5913 5914 5915 5916 5916 5917 5918 5919 5920 5921 5922 5923 5924 5924 5925 5925 5926 5926 5926 5926 5926 5926 5926 5926 5926 5926 5926 5926 5926 5926 5926 5926 5926 5926 5926 5926 5926 5925 5925 5925 5925 5925 5924 5924 5924 5924 5923 5923 5922 5922 5922 5921 5921 5921 5920 5920 5920 5919 5919 5918 5918 5918 5917 5917 5917 5916 5915 5914 5915 5915 5914 5914 5914
5903 5904 5905 5906 5907 5908 5909 5910 5911 5912 5912 5913 5914 5915 5915 5916 5917 5918 5919 5920 5920 5921 5922 5923 5924 5925 5925 5926 5927 5927 5927 5927 5927 5927 5927 5927 5927 5926 5926 5927 5927 5927 5927 5927 5927 5927 5926 5926 5926 5926 5926 5925 5925 5925 5925 5924 5924 5924 5924 5923 5923 5923 5922 5922 5921 5921 5921 5920 5920 5920 5919 5918 5918 5918 5918 5918 5917 5916 5915 5915 5915 5915 5915 5914 5914
5904 5905 5906 5907 5907 5908 5909 5910 5911 5912 5913 5913 5914 5915 5916 5916 5917 5918 5919 5920 5921 5922 5923 5924 5925 5925 5926 5926 5927 5928 5927 5927 5927 5927 5927 5927 5927 5927 5927 5928 5928 5928 5928 5928 5927 5927 5927 5927 5927 5927 5926 5926 5926 5925 5925 5925 5924 5924 5924 5924 5924 5924 5923 5922 5921 5921 5921 5921 5920 5920 5919 5919 5918 5918 5918 5917 5917 5916 5916 5916 5915 5915 5915 5915 5914
5904 5905 5906 5907 5908 5909 5910 5910 5911 5912 5913 5913 5914 5915 5916 5917 5918 5919 5919 5920 5921 5922 5923 5924 5925 5925 5926 5927 5927 5928 5928 5928 5928 5927 5927 5928 5928 5928 5928 5928 5928 5929 5928 5928 5927 5927 5928 5927 5927 5927 5927 5926 5925 5925 5925 5925 5925 5925 5925 5924 5924 5924 5923 5923 5922 5921 5921 5921 5921 5920 5919 5919 5919 5918 5918 5917 5917 5917 5917 5916 5916 5916 5915 5915 5914
5904 5905 5907 5908 5908 5909 5910 5910 5911 5912 5913 5914 5915 5915 5916 5917 5918 5919 5920 5921 5922 5923 5923 5924 5925 5926 5926 5927 5928 5928 5928 5928 5928 5928 5928 5928 5928 5928 5928 5929 5929 5929 5929 5928 5928 5928 5928 5927 5927 5927 5927 5926 5926 5926 5926 5926 5926 5925 5925 5925 5924 5924 5923 5923 5922 5922 5922 5921 5921 5920 5920 5919 5919 5918 5918 5917 5917 5917 5917 5916 5916 5916 5915 5915 5914
5904 5906 5907 5908 5909 5909 5910 5910 5911 5912 5913 5914 5915 5916 5917 5918 5919 5920 5920 5921 5922 5923 5924 5924 5925 5926 5926 5927 5928 5928 5928 5928 5929 5929 5928 5928 5929 5929 5929 5929 5929 5929 5929 5928 5928 5928 5928 5927 5927 5927 5927 5926 5926 5926 5926 5926 5926 5925 5925 5925 5925 5924 5924 5923 5923 5922 5922 5922 5921 5921 5920 5920 5919 5918 5918 5918 5917 5917 5916 5916 5916 5916 5915 5915 5914
5904 5905 5907 5908 5908 5909 5909 5910 5911 5912 5913 5914 5915 5916 5917 5918 5919 5920 5921 5922 5923 5924 5924 5925 5925 5926 5927 5927 5928 5928 5928 5928 5929 5929 5929 5929 5929 5929 5930 5930 5930 5929 5929 5928 5928 5928 5927 5927 5927 5927 5926 5927 5927 5927 5926 5926 5926 5925 5925 5924 5924 5924 5924 5924 5923 5923 5922 5922 5922 5921 5921 5920 5919 5919 5918 5918 5917 5917 5916 5916 5916 5916 5915 5915 5914
5904 5905 5906 5907 5908 5909 5910 5910 5911 5912 5913 5914 5916 5917 5918 5919 5919 5921 5922 5923 5923 5924 5924 5925 5926 5926 5927 5927 5927 5928 5928 5928 5929 5929 5929 5929 5930 5930 5930 5930 5930 5929 5929 5929 5929 5928 5928 5927 5927 5927 5926 5926 5927 5927 5927 5926 5926 5926 5925 5925 5924 5923 5923 5924 5923 5923 5922 5922 5922 5922 5921 5920 5920 5919 5918 5918 5918 5917 5917 5916 5916 5915 5915 5915 5914
5903 5905 5907 5907 5908 5909 5910 5911 5911 5912 5913 5915 5916 5917 5918 5919 5920 5921 5922 5923 5923 5924 5925 5925 5926 5926 5927 5927 5927 5928 5928 5928 5929 5929 5929 5930 5930 5931 5931 5931 5930 5930 5929 5929 5929 5928 5928 5927 5927 5927 5926 5926 5926 5926 5926 5926 5926 5926 5925 5925 5924 5923 5923 5923 5923 5923 5922 5922 5922 5921 5921 5920 5919 5919 5918 5918 5917 5917 5917 5916 5916 5915 5915 5915 5914
5904 5905 5906 5907 5908 5909 5910 5911 5912 5912 5913 5915 5916 5917 5918 5919 5920 5921 5922 5923 5923 5924 5925 5925 5926 5926 5927 5927 5927 5927 5928 5928 5929 5929 5929 5930 5930 5931 5931 5930 5930 5930 5930 5929 5929 5928 5927 5927 5927 5926 5926 5926 5926 5926 5926 5926 5926 5925 5925 5925 5924 5923 5923 5924 5923 5922 5922 5922 5922 5921 5920 5920 5919 5919 5918 5917 5917 5917 5916 5916 5915 5915 5914 5914 5914
5904 5905 5907 5908 5908 5909 5910 5911 5912 5913 5913 5915 5916 5916 5917 5918 5919 5921 5922 5922 5923 5924 5924 5925 5926 5926 5926 5927 5927 5927 5928 5928 5929 5929 5929 5929 5930 5930 5930 5930 5930 5930 5930 5929 5928 5928 5927 5927 5927 5926 5926 5926 5926 5926 5926 5926 5926 5925 5925 5924 5924 5923 5924 5924 5923 5922 5922 5921 5921 5921 5920 5919 5919 5918 5918 5917 5916 5916 5916 5915 5915 5914 5914 5913 5913
5904 5905 5907 5908 5909 5909 5910 5911 5912 5913 5914 5915 5916 5916 5917 5918 5919 5920 5921 5922 5923 5924 5924 5925 5925 5926 5926 5927 5927 5927 5928 5928 5929 5929 5929 5929 5930 5930 5930 5930 5930 5930 5929 5929 5928 5928 5927 5927 5927 5927 5926 5926 5926 5926 5926 5925 5925 5925 5925 5924 5923 5923 5923 5924 5923 5922 5922 5921 5921 5920 5919 5919 5918 5918 5917 5917 5916 5916 5915 5915 5914 5914 5913 5913 5912
5904 5905 5907 5908 5908 5909 5910 5911 5912 5913 5914 5915 5915 5916 5917 5918 5919 5920 5921 5921 5922 5923 5924 5924 5925 5926 5926 5927 5927 5927 5928 5928 5929 5929 5929 5929 5929 5929 5929 5930 5930 5929 5929 5929 5928 5928 5927 5927 5927 5927 5926 5926 5926 5926 5925 5925 5925 5925 5924 5924 5923 5923 5923 5923 5922 5922 5921 5920 5920 5919 5919 5919 5918 5918 5917 5916 5916 5915 5915 5914 5914 5914 5913 5912 5912
5903 5905 5906 5907 5908 5909 5910 5911 5912 5913 5914 5915 5916 5916 5917 5918 5919 5920 5921 5921 5922 5923 5923 5924 5925 5926 5926 5927 5927 5927 5928 5928 5928 5929 5929 5929 5929 5929 5929 5930 5930 5929 5929 5929 5928 5928 5927 5927 5927 5927 5926 5926 5926 5925 5925 5925 5925 5924 5924 5923 5923 5923 5922 5922 5922 5921 5920 5920 5919 5918 5918 5918 5918 5918 5917 5916 5915 5915 5914 5914 5913 5913 5912 5912 5911
5902 5904 5905 5907 5908 5909 5910 5911 5912 5913 5914 5915 5915 5916 5917 5918 5918 5920 5921 5921 5922 5923 5924 5924 5925 5926 5926 5926 5927 5927 5927 5928 5928 5928 5928 5929 5929 5929 5929 5929 5929 5929 5929 5929 5928 5928 5927 5927 5927 5926 5926 5925 5925 5925 5925 5925 5924 5924 5923 5923 5923 5922 5922 5921 5921 5920 5920 5919 5918 5918 5917 5917 5917 5917 5916 5915 5914 5914 5913 5913 5912 5911 5911 5911 5910
5902 5903 5905 5907 5908 5909 5910 5911 5912 5913 5914 5914 5915 5916 5917 5917 5918 5919 5920 5921 5922 5923 5923 5924 5925 5925 5926 5926 5927 5927 5927 5927 5928 5928 5928 5928 5928 5929 5929 5929 5929 5929 5929 5929 5928 5928 5927 5927 5927 5926 5926 5925 5925 5925 5925 5924 5924 5924 5923 5923 5922 5922 5921 5920 5920 5919 5919 5918 5918 5917 5917 5917 5916 5916 5915 5915 5914 5912 5912 5911 5911 5910 5910 5909 5909
5901 5903 5905 5907 5908 5909 5909 5910 5911 5912 5913 5914 5915 5916 5917 5917 5918 5919 5920 5921 5922 5922 5923 5924 5924 5925 5926 5926 5927 5927 5927 5927 5928 5928 5928 5928 5928 5928 5929 5929 5929 5929 5929 5928 5928 5927 5927 5926 5926 5926 5925 5925 5925 5924 5924 5924 5924 5923 5923 5922 5922 5921 5920 5920 5919 5918 5918 5917 5917 5916 5916 5916 5915 5915 5914 5914 5913 5912 5911 5910 5909 5908 5908 5908 5907
5901 5902 5904 5905 5906 5907 5908 5909 5911 5912 5913 5914 5915 5916 5917 5917 5918 5918 5919 5920 5921 5922 5922 5923 5924 5925 5925 5926 5927 5927 5928 5928 5928 5928 5928 5928 5928 5928 5928 5928 5928 5928 5928 5928 5927 5926 5926 5926 5925 5925 5924 5924 5924 5924 5923 5923 5923 5922 5922 5922 5921 5920 5920 5919 5918 5918 5917 5916 5916 5915 5914 5913 5913 5913 5912 5912 5911 5911 5910 5909 5908 5907 5906 5906 5905
5900 5902 5903 5904 5905 5906 5908 5909 5910 5911 5912 5913 5914 5915 5916 5917 5917 5918 5918 5919 5920 5921 5922 5922 5923 5924 5925 5925 5926 5927 5927 5927 5927 5927 5927 5928 5928 5928 5928 5928 5928 5928 5927 5927 5926 5926 5925 5925 5925 5924 5924 5923 5923 5923 5922 5922 5921 5921 5921 5920 5920 5919 5919 5918 5917 5916 5916 5915 5915 5914 5913 5912 5911 5910 5910 5910 5909 5909 5909 5908 5907 5906 5905 5904 5903
5900 5901 5902 5904 5905 5906 5907 5908 5910 5911 5912 5913 5914 5914 5915 5916 5916 5917 5918 5918 5919 5920 5921 5922 5923 5923 5924 5924 5925 5926 5926 5927 5927 5927 5927 5927 5928 5928 5928 5927 5927 5927 5926 5926 5925 5925 5925 5925 5924 5923 5923 5923 5922 5922 5922 5921 5921 5920 5919 5919 5918 5918 5918 5917 5916 5915 5915 5914 5913 5913 5912 5911 5909 5909 5908 5908 5907 5907 5906 5906 5906 5905 5903 5902 5901
5898 5900 5902 5903 5904 5905 5906 5907 5909 5910 5911 5912 5913 5914 5914 5915 5916 5916 5917 5917 5918 5919 5920 5921 5922 5922 5923 5923 5924 5925 5925 5926 5926 5927 5927 5927 5927 5927 5927 5927 5926 5926 5926 5925 5925 5924 5924 5924 5923 5922 5922 5922 5922 5921 5921 5921 5920 5919 5919 5918 5917 5917 5917 5916 5916 5915 5914 5913 5912 5912 5911 5910 5909 5908 5907 5906 5905 5905 5904 5904 5903 5902 5902 5901 5899
5897 5899 5901 5903 5904 5905 5906 5907 5908 5909 5910 5911 5912 5913 5914 5914 5915 5916 5916 5916 5917 5918 5919 5920 5921 5921 5922 5922 5923 5924 5924 5925 5925 5926 5926 5926 5926 5926 5926 5926 5926 5925 5925 5924 5924 5924 5924 5923 5922 5922 5921 5921 5921 5921 5920 5920 5920 5919 5919 5918 5917 5916 5916 5915 5915 5914 5913 5912 5911 5910 5910 5909 5908 5907 5906 5905 5904 5903 5902 5902 5901 5900 5900 5899 5898
5897 5898 5900 5902 5903 5905 5906 5907 5908 5909 5909 5910 5911 5912 5913 5914 5915 5915 5915 5916 5917 5918 5918 5919 5920 5920 5921 5921 5922 5922 5923 5924 5924 5925 5925 5925 5925 5925 5925 5925 5925 5925 5924 5924 5923 5923 5923 5922 5922 5921 5921 5921 5920 5920 5920 5919 5919 5919 5918 5918 5917 5916 5915 5914 5913 5912 5912 5911 5910 5909 5908 5908 5907 5905 5905 5904 5902 5901 5900 5899 5898 5898 5897 5896 5896